Regional Weather Roundup
Issued by NWS Little Rock, AR

Home | Current Version | Previous Version | Graphics & Text | Print | Product List | Glossary On
Versions: 1 2 3 4 5 6 7 8 9 10 11 12 13 14 15 16 17 18 19 20 21 22 23 24 25 26 27
000
ASUS44 KLZK 262105
RWRLZK

WEATHER ROUNDUP FOR ARKANSAS
NATIONAL WEATHER SERVICE LITTLE ROCK AR
400 PM CDT TUE JUL 26 2016

NOTE: "FAIR" INDICATES FEW OR NO CLOUDS BELOW 12,000 FEET WITH NO
SIGNIFICANT WEATHER AND/OR OBSTRUCTIONS TO VISIBILITY.

ARZ001-003-010-029-262200-
NORTHWEST ARKANSAS

CITY           SKY/WX    TMP DP  RH WIND       PRES   REMARKS
FAYETTEVILLE   PTSUNNY   82  74  76 NE15G22   29.96F HX  88
FORT SMITH     MOSUNNY   93  71  48 W6        29.90F HX 100
HARRISON       LGT RAIN  79  73  82 CALM      30.00F
BENTONVILLE    CLOUDY    75  66  73 NE7G30    30.03R THUNDER
ROGERS         CLOUDY    80  72  76 SE14      29.99R THUNDER
SILOAM SPGS    CLOUDY    79  66  65 NW8       29.98F
HIGHFILL       CLOUDY    83  72  69 E9        29.98R THUNDER HX  88
SPRINGDALE     CLOUDY    77  73  88 E16G24    30.00R
$$

ARZ004-005-016-262200-
NORTH CENTRAL ARKANSAS

CITY           SKY/WX    TMP DP  RH WIND       PRES   REMARKS
BATESVILLE     CLOUDY    91  68  46 E5        29.93F HX  95
FLIPPIN        CLOUDY    75  72  88 CALM      29.94F
MTN HOME       PTSUNNY   77  75  93 CALM      29.97F
$$

ARZ040-041-262200-
WEST CENTRAL ARKANSAS

CITY           SKY/WX    TMP DP  RH WIND       PRES   REMARKS
MENA           CLOUDY    88  75  66 W8        29.94S HX  97
MOUNT IDA      MOSUNNY   94  70  45 VRB6      29.90F HX 100
$$

ARZ009-017-025-026-028-262200-
NORTHEAST ARKANSAS

CITY           SKY/WX    TMP DP  RH WIND       PRES   REMARKS
CORNING          N/A     93  75  55 W3        29.95R HX 104
JONESBORO      MOSUNNY   95  69  42 S10       29.92F HX 100
NEWPORT        MOSUNNY   96  71  44 S3        29.93F HX 103
WALNUT RIDGE   MOSUNNY   95  70  43 SE9       29.91S HX 101
BLYTHEVILLE    MOSUNNY   94  74  52 SE3       29.93F HX 104
$$

ARZ022-023-033-042-044-262200-
CENTRAL ARKANSAS

CITY           SKY/WX    TMP DP  RH WIND       PRES   REMARKS
LITTLE ROCK    MOSUNNY   97  70  41 SE8       29.90F HX 103
N LITTLE ROCK    N/A     92  71  49 S8G16     29.88F HX  98
JACKSONVILLE   SUNNY     96  72  45 SE8       29.90F HX 104
SEARCY         MOSUNNY   97  73  45 S8        29.92F HX 107
HOT SPRINGS    SUNNY     93  70  46 S8        29.91F HX  99
RUSSELLVILLE   MOSUNNY   87  78  74 E7        29.91F HX 100
$$

ARZ036-262200-
EAST ARKANSAS

CITY           SKY/WX    TMP DP  RH WIND       PRES   REMARKS
WEST MEMPHIS   LGT RAIN  83  77  82 CALM      29.91F HX  92
$$

ARZ050-053-066-070-073-262200-
SOUTHWEST ARKANSAS

CITY           SKY/WX    TMP DP  RH WIND       PRES   REMARKS
CAMDEN         MOSUNNY   95  68  41 S7G16     29.88F HX  99
TEXARKANA      MOSUNNY   95  70  44 VRB5      29.88F HX 101
EL DORADO      MOSUNNY   95  68  41 VRB3      29.89F HX  99
DE QUEEN       MOSUNNY   96  72  45 VRB3      29.86F HX 104
$$

ARZ056-057-069-262200-
SOUTHEAST ARKANSAS

CITY           SKY/WX    TMP DP  RH WIND       PRES   REMARKS
PINE BLUFF     SUNNY     95  69  42 E8        29.90F HX 100
STUTTGART      SUNNY     93  70  46 SE7       29.92F HX  99
MONTICELLO     SUNNY     95  70  44 SE8       29.90F HX 101

$$






USA.gov is the U.S. government's official web portal to all federal, state and local government web resources and services.